owner,sensor,date,latitude,longitude,vertical_datum,sea_water_practical_salinity,qcFlag 
TABS,ioos:station:wmo:42051:1,2015-03-01T00:00:00Z,29.6350,-93.6417,2.0,28.4165,11111222 
TABS,ioos:station:wmo:42051:1,2015-03-01T00:30:00Z,29.6350,-93.6417,2.0,28.4181,11111222 
TABS,ioos:station:wmo:42051:1,2015-03-01T01:00:00Z,29.6350,-93.6417,2.0,28.4293,11111222 
TABS,ioos:station:wmo:42051:1,2015-03-01T01:30:00Z,29.6350,-93.6417,2.0,28.4205,11111222 
TABS,ioos:station:wmo:42051:1,2015-03-01T02:00:00Z,29.6350,-93.6417,2.0,28.4041,11111222 
TABS,ioos:station:wmo:42051:1,2015-03-01T02:30:00Z,29.6350,-93.6417,2.0,28.3908,11111222 
TABS,ioos:station:wmo:42051:1,2015-03-01T03:00:00Z,29.6350,-93.6417,2.0,28.3873,11111222 
TABS,ioos:station:wmo:42051:1,2015-03-01T03:30:00Z,29.6350,-93.6417,2.0,28.3835,11111222 
TABS,ioos:station:wmo:42051:1,2015-03-01T04:00:00Z,29.6350,-93.6417,2.0,28.4141,11111222 
TABS,ioos:station:wmo:42051:1,2015-03-01T04:30:00Z,29.6350,-93.6417,2.0,28.4278,11111222 
TABS,ioos:station:wmo:42051:1,2015-03-01T05:00:00Z,29.6350,-93.6417,2.0,28.466,11111222 
TABS,ioos:station:wmo:42051:1,2015-03-01T05:30:00Z,29.6350,-93.6417,2.0,28.496,11111222 
TABS,ioos:station:wmo:42051:1,2015-03-01T06:00:00Z,29.6350,-93.6417,2.0,28.4685,11111222 
TABS,ioos:station:wmo:42051:1,2015-03-01T06:30:00Z,29.6350,-93.6417,2.0,28.4447,11111222 
TABS,ioos:station:wmo:42051:1,2015-03-01T07:00:00Z,29.6350,-93.6417,2.0,28.4227,11111222 
TABS,ioos:station:wmo:42051:1,2015-03-01T07:30:00Z,29.6350,-93.6417,2.0,28.4053,11111222 
TABS,ioos:station:wmo:42051:1,2015-03-01T08:00:00Z,29.6350,-93.6417,2.0,28.3902,11111222 
TABS,ioos:station:wmo:42051:1,2015-03-01T08:30:00Z,29.6350,-93.6417,2.0,28.3745,11111222 
TABS,ioos:station:wmo:42051:1,2015-03-01T09:00:00Z,29.6350,-93.6417,2.0,28.3641,11111222 
TABS,ioos:station:wmo:42051:1,2015-03-01T09:30:00Z,29.6350,-93.6417,2.0,28.3495,11111222 
TABS,ioos:station:wmo:42051:1,2015-03-01T10:00:00Z,29.6350,-93.6417,2.0,28.3333,11111222 
TABS,ioos:station:wmo:42051:1,2015-03-01T10:30:00Z,29.6350,-93.6417,2.0,28.3274,11111222 
TABS,ioos:station:wmo:42051:1,2015-03-01T11:00:00Z,29.6350,-93.6417,2.0,28.3091,11111222 
TABS,ioos:station:wmo:42051:1,2015-03-01T11:30:00Z,29.6350,-93.6417,2.0,28.2899,11111222 
TABS,ioos:station:wmo:42051:1,2015-03-01T12:00:00Z,29.6350,-93.6417,2.0,28.3248,11111222 
TABS,ioos:station:wmo:42051:1,2015-03-01T12:30:00Z,29.6350,-93.6417,2.0,28.3451,11111222 
TABS,ioos:station:wmo:42051:1,2015-03-01T13:00:00Z,29.6350,-93.6417,2.0,28.3577,11111222 
TABS,ioos:station:wmo:42051:1,2015-03-01T13:30:00Z,29.6350,-93.6417,2.0,28.3561,11111222 
TABS,ioos:station:wmo:42051:1,2015-03-01T14:00:00Z,29.6350,-93.6417,2.0,28.3395,11111222 
TABS,ioos:station:wmo:42051:1,2015-03-01T14:30:00Z,29.6350,-93.6417,2.0,28.3577,11111222 
TABS,ioos:station:wmo:42051:1,2015-03-01T15:00:00Z,29.6350,-93.6417,2.0,28.38,11111222 
TABS,ioos:station:wmo:42051:1,2015-03-01T15:30:00Z,29.6350,-93.6417,2.0,28.3926,11111222 
TABS,ioos:station:wmo:42051:1,2015-03-01T16:00:00Z,29.6350,-93.6417,2.0,28.4093,11111222 
TABS,ioos:station:wmo:42051:1,2015-03-01T16:30:00Z,29.6350,-93.6417,2.0,28.383,11111222 
TABS,ioos:station:wmo:42051:1,2015-03-01T17:00:00Z,29.6350,-93.6417,2.0,28.3965,11111222 
TABS,ioos:station:wmo:42051:1,2015-03-01T17:30:00Z,29.6350,-93.6417,2.0,28.3708,11111222 
TABS,ioos:station:wmo:42051:1,2015-03-01T18:00:00Z,29.6350,-93.6417,2.0,28.3667,11111222 
TABS,ioos:station:wmo:42051:1,2015-03-01T18:30:00Z,29.6350,-93.6417,2.0,28.346,11111222 
TABS,ioos:station:wmo:42051:1,2015-03-01T19:00:00Z,29.6350,-93.6417,2.0,28.2824,11111222 
TABS,ioos:station:wmo:42051:1,2015-03-01T19:30:00Z,29.6350,-93.6417,2.0,28.2967,11111222 
TABS,ioos:station:wmo:42051:1,2015-03-01T20:00:00Z,29.6350,-93.6417,2.0,28.3011,11111222 
TABS,ioos:station:wmo:42051:1,2015-03-01T20:30:00Z,29.6350,-93.6417,2.0,28.2304,11111222 
TABS,ioos:station:wmo:42051:1,2015-03-01T21:00:00Z,29.6350,-93.6417,2.0,28.3188,11111222 
TABS,ioos:station:wmo:42051:1,2015-03-01T21:30:00Z,29.6350,-93.6417,2.0,28.162,11111222 
TABS,ioos:station:wmo:42051:1,2015-03-01T22:00:00Z,29.6350,-93.6417,2.0,28.171,11111222 
TABS,ioos:station:wmo:42051:1,2015-03-01T22:30:00Z,29.6350,-93.6417,2.0,28.1504,11111222 
TABS,ioos:station:wmo:42051:1,2015-03-01T23:00:00Z,29.6350,-93.6417,2.0,28.1293,11111222 
TABS,ioos:station:wmo:42051:1,2015-03-01T23:30:00Z,29.6350,-93.6417,2.0,28.1411,11111222 
TABS,ioos:station:wmo:42051:1,2015-03-02T00:00:00Z,29.6350,-93.6417,2.0,28.1281,11111222 
TABS,ioos:station:wmo:42051:1,2015-03-02T00:30:00Z,29.6350,-93.6417,2.0,28.1146,11111222 
TABS,ioos:station:wmo:42051:1,2015-03-02T01:00:00Z,29.6350,-93.6417,2.0,28.0992,11111222 
TABS,ioos:station:wmo:42051:1,2015-03-02T01:30:00Z,29.6350,-93.6417,2.0,28.0505,11111222 
TABS,ioos:station:wmo:42051:1,2015-03-02T02:00:00Z,29.6350,-93.6417,2.0,27.9871,11111222 
TABS,ioos:station:wmo:42051:1,2015-03-02T02:30:00Z,29.6350,-93.6417,2.0,27.9781,11111222 
TABS,ioos:station:wmo:42051:1,2015-03-02T03:00:00Z,29.6350,-93.6417,2.0,27.9482,11111222 
TABS,ioos:station:wmo:42051:1,2015-03-02T03:30:00Z,29.6350,-93.6417,2.0,27.9819,11111222 
TABS,ioos:station:wmo:42051:1,2015-03-02T04:00:00Z,29.6350,-93.6417,2.0,28.023,11111222 
TABS,ioos:station:wmo:42051:1,2015-03-02T04:30:00Z,29.6350,-93.6417,2.0,27.8719,11111222 
TABS,ioos:station:wmo:42051:1,2015-03-02T05:00:00Z,29.6350,-93.6417,2.0,27.9024,11111222 
TABS,ioos:station:wmo:42051:1,2015-03-02T05:30:00Z,29.6350,-93.6417,2.0,28.0478,11111222 
TABS,ioos:station:wmo:42051:1,2015-03-02T06:00:00Z,29.6350,-93.6417,2.0,28.1269,11111222 
TABS,ioos:station:wmo:42051:1,2015-03-02T06:30:00Z,29.6350,-93.6417,2.0,28.1088,11111222 
TABS,ioos:station:wmo:42051:1,2015-03-02T07:00:00Z,29.6350,-93.6417,2.0,28.1116,11111222 
TABS,ioos:station:wmo:42051:1,2015-03-02T07:30:00Z,29.6350,-93.6417,2.0,27.9991,11111222 
TABS,ioos:station:wmo:42051:1,2015-03-02T08:00:00Z,29.6350,-93.6417,2.0,28.0301,11111222 
TABS,ioos:station:wmo:42051:1,2015-03-02T08:30:00Z,29.6350,-93.6417,2.0,28.0127,11111222 
TABS,ioos:station:wmo:42051:1,2015-03-02T09:00:00Z,29.6350,-93.6417,2.0,27.9647,11111222 
TABS,ioos:station:wmo:42051:1,2015-03-02T09:30:00Z,29.6350,-93.6417,2.0,27.954,11111222 
TABS,ioos:station:wmo:42051:1,2015-03-02T10:00:00Z,29.6350,-93.6417,2.0,27.9724,11111222 
TABS,ioos:station:wmo:42051:1,2015-03-02T10:30:00Z,29.6350,-93.6417,2.0,27.9617,11111222 
TABS,ioos:station:wmo:42051:1,2015-03-02T11:00:00Z,29.6350,-93.6417,2.0,27.9036,11111222 
TABS,ioos:station:wmo:42051:1,2015-03-02T11:30:00Z,29.6350,-93.6417,2.0,27.9524,11111222 
TABS,ioos:station:wmo:42051:1,2015-03-02T12:00:00Z,29.6350,-93.6417,2.0,27.9487,11111222 
TABS,ioos:station:wmo:42051:1,2015-03-02T12:30:00Z,29.6350,-93.6417,2.0,27.9626,11111222 
TABS,ioos:station:wmo:42051:1,2015-03-02T13:00:00Z,29.6350,-93.6417,2.0,27.975,11111222 
TABS,ioos:station:wmo:42051:1,2015-03-02T13:30:00Z,29.6350,-93.6417,2.0,27.9881,11111222 
TABS,ioos:station:wmo:42051:1,2015-03-02T14:00:00Z,29.6350,-93.6417,2.0,27.9739,11111222 
TABS,ioos:station:wmo:42051:1,2015-03-02T14:30:00Z,29.6350,-93.6417,2.0,27.9856,11111222 
TABS,ioos:station:wmo:42051:1,2015-03-02T15:00:00Z,29.6350,-93.6417,2.0,27.9994,11111222 
TABS,ioos:station:wmo:42051:1,2015-03-02T15:30:00Z,29.6350,-93.6417,2.0,28.0469,11111222 
TABS,ioos:station:wmo:42051:1,2015-03-02T16:00:00Z,29.6350,-93.6417,2.0,28.0618,11111222 
TABS,ioos:station:wmo:42051:1,2015-03-02T16:30:00Z,29.6350,-93.6417,2.0,28.0882,11111222 
TABS,ioos:station:wmo:42051:1,2015-03-02T17:00:00Z,29.6350,-93.6417,2.0,28.0977,11111222 
TABS,ioos:station:wmo:42051:1,2015-03-02T17:30:00Z,29.6350,-93.6417,2.0,28.168,11111222 
TABS,ioos:station:wmo:42051:1,2015-03-02T18:00:00Z,29.6350,-93.6417,2.0,28.2503,11111222 
TABS,ioos:station:wmo:42051:1,2015-03-02T18:30:00Z,29.6350,-93.6417,2.0,28.3183,11111222 
TABS,ioos:station:wmo:42051:1,2015-03-02T19:00:00Z,29.6350,-93.6417,2.0,28.4133,11111222 
TABS,ioos:station:wmo:42051:1,2015-03-02T19:30:00Z,29.6350,-93.6417,2.0,28.3664,11111222 
TABS,ioos:station:wmo:42051:1,2015-03-02T20:00:00Z,29.6350,-93.6417,2.0,28.2801,11111222 
TABS,ioos:station:wmo:42051:1,2015-03-02T20:30:00Z,29.6350,-93.6417,2.0,27.9561,11111222 
TABS,ioos:station:wmo:42051:1,2015-03-02T21:00:00Z,29.6350,-93.6417,2.0,28.0331,11111222 
TABS,ioos:station:wmo:42051:1,2015-03-02T21:30:00Z,29.6350,-93.6417,2.0,28.106,11111222 
TABS,ioos:station:wmo:42051:1,2015-03-02T22:00:00Z,29.6350,-93.6417,2.0,28.0677,11111222 
TABS,ioos:station:wmo:42051:1,2015-03-02T22:30:00Z,29.6350,-93.6417,2.0,28.1881,11111222 
TABS,ioos:station:wmo:42051:1,2015-03-02T23:00:00Z,29.6350,-93.6417,2.0,27.9648,11111222 
TABS,ioos:station:wmo:42051:1,2015-03-02T23:30:00Z,29.6350,-93.6417,2.0,28.048,11111222 
TABS,ioos:station:wmo:42051:1,2015-03-03T00:00:00Z,29.6350,-93.6417,2.0,27.9906,11111222 
TABS,ioos:station:wmo:42051:1,2015-03-03T00:30:00Z,29.6350,-93.6417,2.0,28.0346,11111222 
TABS,ioos:station:wmo:42051:1,2015-03-03T01:00:00Z,29.6350,-93.6417,2.0,27.9334,11111222 
TABS,ioos:station:wmo:42051:1,2015-03-03T01:30:00Z,29.6350,-93.6417,2.0,27.9571,11111222 
TABS,ioos:station:wmo:42051:1,2015-03-03T02:00:00Z,29.6350,-93.6417,2.0,27.879,11111222 
TABS,ioos:station:wmo:42051:1,2015-03-03T02:30:00Z,29.6350,-93.6417,2.0,27.93,11111222 
TABS,ioos:station:wmo:42051:1,2015-03-03T03:00:00Z,29.6350,-93.6417,2.0,28.0062,11111222 
TABS,ioos:station:wmo:42051:1,2015-03-03T03:30:00Z,29.6350,-93.6417,2.0,27.8746,11111222 
TABS,ioos:station:wmo:42051:1,2015-03-03T04:00:00Z,29.6350,-93.6417,2.0,27.9852,11111222 
TABS,ioos:station:wmo:42051:1,2015-03-03T04:30:00Z,29.6350,-93.6417,2.0,28.1029,11111222 
TABS,ioos:station:wmo:42051:1,2015-03-03T05:00:00Z,29.6350,-93.6417,2.0,28.1975,11111222 
TABS,ioos:station:wmo:42051:1,2015-03-03T05:30:00Z,29.6350,-93.6417,2.0,28.1554,11111222 
TABS,ioos:station:wmo:42051:1,2015-03-03T06:00:00Z,29.6350,-93.6417,2.0,28.2433,11111222 
TABS,ioos:station:wmo:42051:1,2015-03-03T06:30:00Z,29.6350,-93.6417,2.0,28.2875,11111222 
TABS,ioos:station:wmo:42051:1,2015-03-03T07:00:00Z,29.6350,-93.6417,2.0,28.2829,11111222 
TABS,ioos:station:wmo:42051:1,2015-03-03T07:30:00Z,29.6350,-93.6417,2.0,28.3002,11111222 
TABS,ioos:station:wmo:42051:1,2015-03-03T08:00:00Z,29.6350,-93.6417,2.0,28.3016,11111222 
TABS,ioos:station:wmo:42051:1,2015-03-03T08:30:00Z,29.6350,-93.6417,2.0,28.2821,11111222 
TABS,ioos:station:wmo:42051:1,2015-03-03T09:00:00Z,29.6350,-93.6417,2.0,28.2162,11111222 
TABS,ioos:station:wmo:42051:1,2015-03-03T09:30:00Z,29.6350,-93.6417,2.0,28.132,11111222 
TABS,ioos:station:wmo:42051:1,2015-03-03T10:00:00Z,29.6350,-93.6417,2.0,28.1329,11111222 
TABS,ioos:station:wmo:42051:1,2015-03-03T10:30:00Z,29.6350,-93.6417,2.0,28.114,11111222 
TABS,ioos:station:wmo:42051:1,2015-03-03T11:00:00Z,29.6350,-93.6417,2.0,28.065,11111222 
TABS,ioos:station:wmo:42051:1,2015-03-03T11:30:00Z,29.6350,-93.6417,2.0,28.0563,11111222 
TABS,ioos:station:wmo:42051:1,2015-03-03T12:00:00Z,29.6350,-93.6417,2.0,28.0008,11111222 
TABS,ioos:station:wmo:42051:1,2015-03-03T12:30:00Z,29.6350,-93.6417,2.0,27.9838,11111222 
TABS,ioos:station:wmo:42051:1,2015-03-03T13:00:00Z,29.6350,-93.6417,2.0,27.994,11111222 
TABS,ioos:station:wmo:42051:1,2015-03-03T13:30:00Z,29.6350,-93.6417,2.0,28.0453,11111222 
TABS,ioos:station:wmo:42051:1,2015-03-03T14:00:00Z,29.6350,-93.6417,2.0,28.0395,11111222 
TABS,ioos:station:wmo:42051:1,2015-03-03T14:30:00Z,29.6350,-93.6417,2.0,28.0326,11111222 
TABS,ioos:station:wmo:42051:1,2015-03-03T15:00:00Z,29.6350,-93.6417,2.0,28.0514,11111222 
TABS,ioos:station:wmo:42051:1,2015-03-03T15:30:00Z,29.6350,-93.6417,2.0,28.0804,11111222 
TABS,ioos:station:wmo:42051:1,2015-03-03T16:00:00Z,29.6350,-93.6417,2.0,28.1212,11111222 
TABS,ioos:station:wmo:42051:1,2015-03-03T16:30:00Z,29.6350,-93.6417,2.0,28.1751,11111222 
TABS,ioos:station:wmo:42051:1,2015-03-03T17:00:00Z,29.6350,-93.6417,2.0,28.0379,11111222 
TABS,ioos:station:wmo:42051:1,2015-03-03T17:30:00Z,29.6350,-93.6417,2.0,27.9765,11111222 
TABS,ioos:station:wmo:42051:1,2015-03-03T18:00:00Z,29.6350,-93.6417,2.0,27.7654,11111222 
TABS,ioos:station:wmo:42051:1,2015-03-03T18:30:00Z,29.6350,-93.6417,2.0,27.7451,11111222 
TABS,ioos:station:wmo:42051:1,2015-03-03T19:00:00Z,29.6350,-93.6417,2.0,27.7267,11111222 
TABS,ioos:station:wmo:42051:1,2015-03-03T19:30:00Z,29.6350,-93.6417,2.0,27.8582,11111222 
TABS,ioos:station:wmo:42051:1,2015-03-03T20:00:00Z,29.6350,-93.6417,2.0,27.7202,11111222 
TABS,ioos:station:wmo:42051:1,2015-03-03T20:30:00Z,29.6350,-93.6417,2.0,27.4294,11111222 
TABS,ioos:station:wmo:42051:1,2015-03-03T21:00:00Z,29.6350,-93.6417,2.0,27.3711,11111222 
TABS,ioos:station:wmo:42051:1,2015-03-03T21:30:00Z,29.6350,-93.6417,2.0,27.2813,11111222 
TABS,ioos:station:wmo:42051:1,2015-03-03T22:00:00Z,29.6350,-93.6417,2.0,26.8972,11111222 
TABS,ioos:station:wmo:42051:1,2015-03-03T22:30:00Z,29.6350,-93.6417,2.0,26.9334,11111222 
TABS,ioos:station:wmo:42051:1,2015-03-03T23:00:00Z,29.6350,-93.6417,2.0,26.8277,11111222 
TABS,ioos:station:wmo:42051:1,2015-03-03T23:30:00Z,29.6350,-93.6417,2.0,26.7787,11111222 
TABS,ioos:station:wmo:42051:1,2015-03-04T00:00:00Z,29.6350,-93.6417,2.0,26.7479,11111222 
TABS,ioos:station:wmo:42051:1,2015-03-04T00:30:00Z,29.6350,-93.6417,2.0,26.6829,11111222 
TABS,ioos:station:wmo:42051:1,2015-03-04T01:00:00Z,29.6350,-93.6417,2.0,26.6687,11111222 
TABS,ioos:station:wmo:42051:1,2015-03-04T01:30:00Z,29.6350,-93.6417,2.0,26.6112,11111222 
TABS,ioos:station:wmo:42051:1,2015-03-04T02:00:00Z,29.6350,-93.6417,2.0,26.6733,11111222 
TABS,ioos:station:wmo:42051:1,2015-03-04T02:30:00Z,29.6350,-93.6417,2.0,26.6354,11111222 
TABS,ioos:station:wmo:42051:1,2015-03-04T03:00:00Z,29.6350,-93.6417,2.0,26.5929,11111222 
TABS,ioos:station:wmo:42051:1,2015-03-04T03:30:00Z,29.6350,-93.6417,2.0,26.4775,11111222 
TABS,ioos:station:wmo:42051:1,2015-03-04T04:00:00Z,29.6350,-93.6417,2.0,26.5448,11111222 
TABS,ioos:station:wmo:42051:1,2015-03-04T04:30:00Z,29.6350,-93.6417,2.0,26.5054,11111222 
TABS,ioos:station:wmo:42051:1,2015-03-04T05:00:00Z,29.6350,-93.6417,2.0,26.5766,11111222 
TABS,ioos:station:wmo:42051:1,2015-03-04T05:30:00Z,29.6350,-93.6417,2.0,26.5655,11111222 
TABS,ioos:station:wmo:42051:1,2015-03-04T06:00:00Z,29.6350,-93.6417,2.0,26.5231,11111222 
TABS,ioos:station:wmo:42051:1,2015-03-04T06:30:00Z,29.6350,-93.6417,2.0,26.8314,11111222 
TABS,ioos:station:wmo:42051:1,2015-03-04T07:00:00Z,29.6350,-93.6417,2.0,26.7198,11111222 
TABS,ioos:station:wmo:42051:1,2015-03-04T07:30:00Z,29.6350,-93.6417,2.0,26.7487,11111222 
TABS,ioos:station:wmo:42051:1,2015-03-04T08:00:00Z,29.6350,-93.6417,2.0,26.7927,11111222 
TABS,ioos:station:wmo:42051:1,2015-03-04T08:30:00Z,29.6350,-93.6417,2.0,26.7179,11111222 
TABS,ioos:station:wmo:42051:1,2015-03-04T09:00:00Z,29.6350,-93.6417,2.0,26.725,11111222 
TABS,ioos:station:wmo:42051:1,2015-03-04T09:30:00Z,29.6350,-93.6417,2.0,26.6149,11111222 
TABS,ioos:station:wmo:42051:1,2015-03-04T10:00:00Z,29.6350,-93.6417,2.0,26.4637,11111222 
TABS,ioos:station:wmo:42051:1,2015-03-04T10:30:00Z,29.6350,-93.6417,2.0,26.4902,11111222 
TABS,ioos:station:wmo:42051:1,2015-03-04T11:00:00Z,29.6350,-93.6417,2.0,26.4421,11111222 
TABS,ioos:station:wmo:42051:1,2015-03-04T11:30:00Z,29.6350,-93.6417,2.0,26.4674,11111222 
TABS,ioos:station:wmo:42051:1,2015-03-04T12:00:00Z,29.6350,-93.6417,2.0,26.4934,11111222 
TABS,ioos:station:wmo:42051:1,2015-03-04T12:30:00Z,29.6350,-93.6417,2.0,26.3837,11111222 
TABS,ioos:station:wmo:42051:1,2015-03-04T13:00:00Z,29.6350,-93.6417,2.0,26.4079,11111222 
TABS,ioos:station:wmo:42051:1,2015-03-04T13:30:00Z,29.6350,-93.6417,2.0,26.4493,11111222 
TABS,ioos:station:wmo:42051:1,2015-03-04T14:00:00Z,29.6350,-93.6417,2.0,26.4378,11111222 
TABS,ioos:station:wmo:42051:1,2015-03-04T14:30:00Z,29.6350,-93.6417,2.0,26.4119,11111222 
TABS,ioos:station:wmo:42051:1,2015-03-04T15:00:00Z,29.6350,-93.6417,2.0,26.3991,11111222 
TABS,ioos:station:wmo:42051:1,2015-03-04T15:30:00Z,29.6350,-93.6417,2.0,26.405,11111222 
TABS,ioos:station:wmo:42051:1,2015-03-04T16:00:00Z,29.6350,-93.6417,2.0,26.4211,11111222 
TABS,ioos:station:wmo:42051:1,2015-03-04T16:30:00Z,29.6350,-93.6417,2.0,26.4333,11111222 
TABS,ioos:station:wmo:42051:1,2015-03-04T17:00:00Z,29.6350,-93.6417,2.0,26.4518,11111222 
TABS,ioos:station:wmo:42051:1,2015-03-04T17:30:00Z,29.6350,-93.6417,2.0,26.4941,11111222 
TABS,ioos:station:wmo:42051:1,2015-03-04T18:00:00Z,29.6350,-93.6417,2.0,26.5297,11111222 
TABS,ioos:station:wmo:42051:1,2015-03-04T18:30:00Z,29.6350,-93.6417,2.0,26.5679,11111222 
TABS,ioos:station:wmo:42051:1,2015-03-04T19:00:00Z,29.6350,-93.6417,2.0,26.6216,11111222 
TABS,ioos:station:wmo:42051:1,2015-03-04T19:30:00Z,29.6350,-93.6417,2.0,26.5325,11111222 
TABS,ioos:station:wmo:42051:1,2015-03-04T20:00:00Z,29.6350,-93.6417,2.0,26.5815,11111222 
TABS,ioos:station:wmo:42051:1,2015-03-04T20:30:00Z,29.6350,-93.6417,2.0,26.565,11111222 
TABS,ioos:station:wmo:42051:1,2015-03-04T21:00:00Z,29.6350,-93.6417,2.0,26.5827,11111222 
TABS,ioos:station:wmo:42051:1,2015-03-04T21:30:00Z,29.6350,-93.6417,2.0,26.5119,11111222 
TABS,ioos:station:wmo:42051:1,2015-03-04T22:00:00Z,29.6350,-93.6417,2.0,26.4018,11111222 
TABS,ioos:station:wmo:42051:1,2015-03-04T22:30:00Z,29.6350,-93.6417,2.0,26.4419,11111222 
TABS,ioos:station:wmo:42051:1,2015-03-04T23:00:00Z,29.6350,-93.6417,2.0,26.4557,11111222 
TABS,ioos:station:wmo:42051:1,2015-03-04T23:30:00Z,29.6350,-93.6417,2.0,26.3819,11111222 
TABS,ioos:station:wmo:42051:1,2015-03-05T00:00:00Z,29.6350,-93.6417,2.0,26.3018,11111222 
TABS,ioos:station:wmo:42051:1,2015-03-05T00:30:00Z,29.6350,-93.6417,2.0,26.218,11111222 
TABS,ioos:station:wmo:42051:1,2015-03-05T01:00:00Z,29.6350,-93.6417,2.0,26.2269,11111222 
TABS,ioos:station:wmo:42051:1,2015-03-05T01:30:00Z,29.6350,-93.6417,2.0,26.241,11111222 
TABS,ioos:station:wmo:42051:1,2015-03-05T02:00:00Z,29.6350,-93.6417,2.0,26.2441,11111222 
TABS,ioos:station:wmo:42051:1,2015-03-05T02:30:00Z,29.6350,-93.6417,2.0,26.075,11111222 
TABS,ioos:station:wmo:42051:1,2015-03-05T03:00:00Z,29.6350,-93.6417,2.0,26.0836,11111222 
TABS,ioos:station:wmo:42051:1,2015-03-05T03:30:00Z,29.6350,-93.6417,2.0,26.0915,11111222 
TABS,ioos:station:wmo:42051:1,2015-03-05T04:00:00Z,29.6350,-93.6417,2.0,26.0044,11111222 
TABS,ioos:station:wmo:42051:1,2015-03-05T04:30:00Z,29.6350,-93.6417,2.0,26.0091,11111222 
TABS,ioos:station:wmo:42051:1,2015-03-05T05:00:00Z,29.6350,-93.6417,2.0,26.2525,11111222 
TABS,ioos:station:wmo:42051:1,2015-03-05T05:30:00Z,29.6350,-93.6417,2.0,26.2667,11111222 
TABS,ioos:station:wmo:42051:1,2015-03-05T06:00:00Z,29.6350,-93.6417,2.0,27.0747,11111222 
TABS,ioos:station:wmo:42051:1,2015-03-05T06:30:00Z,29.6350,-93.6417,2.0,27.3757,11111222 
TABS,ioos:station:wmo:42051:1,2015-03-05T07:00:00Z,29.6350,-93.6417,2.0,27.4018,11111222 
TABS,ioos:station:wmo:42051:1,2015-03-05T07:30:00Z,29.6350,-93.6417,2.0,27.483,11111222 
TABS,ioos:station:wmo:42051:1,2015-03-05T08:00:00Z,29.6350,-93.6417,2.0,27.4066,11111222 
TABS,ioos:station:wmo:42051:1,2015-03-05T08:30:00Z,29.6350,-93.6417,2.0,27.5667,11111222 
TABS,ioos:station:wmo:42051:1,2015-03-05T09:00:00Z,29.6350,-93.6417,2.0,27.608,11111222 
TABS,ioos:station:wmo:42051:1,2015-03-05T09:30:00Z,29.6350,-93.6417,2.0,27.7662,11111222 
TABS,ioos:station:wmo:42051:1,2015-03-05T10:00:00Z,29.6350,-93.6417,2.0,27.9248,11111222 
TABS,ioos:station:wmo:42051:1,2015-03-05T10:30:00Z,29.6350,-93.6417,2.0,27.7247,11111222 
TABS,ioos:station:wmo:42051:1,2015-03-05T11:00:00Z,29.6350,-93.6417,2.0,27.6843,11111222 
TABS,ioos:station:wmo:42051:1,2015-03-05T11:30:00Z,29.6350,-93.6417,2.0,27.7653,11111222 
TABS,ioos:station:wmo:42051:1,2015-03-05T12:00:00Z,29.6350,-93.6417,2.0,27.7369,11111222 
TABS,ioos:station:wmo:42051:1,2015-03-05T12:30:00Z,29.6350,-93.6417,2.0,27.7808,11111222 
TABS,ioos:station:wmo:42051:1,2015-03-05T13:00:00Z,29.6350,-93.6417,2.0,27.806,11111222 
TABS,ioos:station:wmo:42051:1,2015-03-05T13:30:00Z,29.6350,-93.6417,2.0,27.8201,11111222 
TABS,ioos:station:wmo:42051:1,2015-03-05T14:00:00Z,29.6350,-93.6417,2.0,27.781,11111222 
TABS,ioos:station:wmo:42051:1,2015-03-05T14:30:00Z,29.6350,-93.6417,2.0,27.4608,11111222 
TABS,ioos:station:wmo:42051:1,2015-03-05T15:00:00Z,29.6350,-93.6417,2.0,27.2876,11111222 
TABS,ioos:station:wmo:42051:1,2015-03-05T15:30:00Z,29.6350,-93.6417,2.0,27.4345,11111222 
TABS,ioos:station:wmo:42051:1,2015-03-05T16:00:00Z,29.6350,-93.6417,2.0,27.58,11111222 
TABS,ioos:station:wmo:42051:1,2015-03-05T16:30:00Z,29.6350,-93.6417,2.0,27.3138,11111222 
TABS,ioos:station:wmo:42051:1,2015-03-05T17:00:00Z,29.6350,-93.6417,2.0,27.3938,11111222 
TABS,ioos:station:wmo:42051:1,2015-03-05T17:30:00Z,29.6350,-93.6417,2.0,27.4372,11111222 
TABS,ioos:station:wmo:42051:1,2015-03-05T18:00:00Z,29.6350,-93.6417,2.0,27.6299,11111222 
TABS,ioos:station:wmo:42051:1,2015-03-05T18:30:00Z,29.6350,-93.6417,2.0,27.5639,11111222 
TABS,ioos:station:wmo:42051:1,2015-03-05T19:00:00Z,29.6350,-93.6417,2.0,27.5554,11111222 
TABS,ioos:station:wmo:42051:1,2015-03-05T19:30:00Z,29.6350,-93.6417,2.0,27.3415,11111222 
TABS,ioos:station:wmo:42051:1,2015-03-05T20:00:00Z,29.6350,-93.6417,2.0,27.4757,11111222 
TABS,ioos:station:wmo:42051:1,2015-03-05T20:30:00Z,29.6350,-93.6417,2.0,26.9826,11111222 
TABS,ioos:station:wmo:42051:1,2015-03-05T21:00:00Z,29.6350,-93.6417,2.0,27.0464,11111222 
TABS,ioos:station:wmo:42051:1,2015-03-05T21:30:00Z,29.6350,-93.6417,2.0,26.9727,11111222 
TABS,ioos:station:wmo:42051:1,2015-03-05T22:00:00Z,29.6350,-93.6417,2.0,26.8204,11111222 
TABS,ioos:station:wmo:42051:1,2015-03-05T22:30:00Z,29.6350,-93.6417,2.0,26.6721,11111222 
TABS,ioos:station:wmo:42051:1,2015-03-05T23:00:00Z,29.6350,-93.6417,2.0,26.6672,11111222 
TABS,ioos:station:wmo:42051:1,2015-03-05T23:30:00Z,29.6350,-93.6417,2.0,26.5838,11111222 
TABS,ioos:station:wmo:42051:1,2015-03-06T00:00:00Z,29.6350,-93.6417,2.0,26.582,11111222 
TABS,ioos:station:wmo:42051:1,2015-03-06T00:30:00Z,29.6350,-93.6417,2.0,26.4776,11111222 
TABS,ioos:station:wmo:42051:1,2015-03-06T01:00:00Z,29.6350,-93.6417,2.0,26.5079,11111222 
TABS,ioos:station:wmo:42051:1,2015-03-06T01:30:00Z,29.6350,-93.6417,2.0,26.4803,11111222 
TABS,ioos:station:wmo:42051:1,2015-03-06T02:00:00Z,29.6350,-93.6417,2.0,26.4268,11111222 
TABS,ioos:station:wmo:42051:1,2015-03-06T02:30:00Z,29.6350,-93.6417,2.0,26.5661,11111222 
TABS,ioos:station:wmo:42051:1,2015-03-06T03:00:00Z,29.6350,-93.6417,2.0,26.6107,11111222 
TABS,ioos:station:wmo:42051:1,2015-03-06T03:30:00Z,29.6350,-93.6417,2.0,26.5368,11111222 
TABS,ioos:station:wmo:42051:1,2015-03-06T04:00:00Z,29.6350,-93.6417,2.0,26.6531,11111222 
TABS,ioos:station:wmo:42051:1,2015-03-06T04:30:00Z,29.6350,-93.6417,2.0,26.6569,11111222 
TABS,ioos:station:wmo:42051:1,2015-03-06T05:00:00Z,29.6350,-93.6417,2.0,26.6839,11111222 
TABS,ioos:station:wmo:42051:1,2015-03-06T05:30:00Z,29.6350,-93.6417,2.0,26.7554,11111222 
TABS,ioos:station:wmo:42051:1,2015-03-06T06:00:00Z,29.6350,-93.6417,2.0,26.9002,11111222 
TABS,ioos:station:wmo:42051:1,2015-03-06T06:30:00Z,29.6350,-93.6417,2.0,27.0317,11111222 
TABS,ioos:station:wmo:42051:1,2015-03-06T07:00:00Z,29.6350,-93.6417,2.0,27.2107,11111222 
TABS,ioos:station:wmo:42051:1,2015-03-06T07:30:00Z,29.6350,-93.6417,2.0,27.461,11111222 
TABS,ioos:station:wmo:42051:1,2015-03-06T08:00:00Z,29.6350,-93.6417,2.0,27.508,11111222 
TABS,ioos:station:wmo:42051:1,2015-03-06T08:30:00Z,29.6350,-93.6417,2.0,27.6794,11111222 
TABS,ioos:station:wmo:42051:1,2015-03-06T09:00:00Z,29.6350,-93.6417,2.0,27.7458,11111222 
TABS,ioos:station:wmo:42051:1,2015-03-06T09:30:00Z,29.6350,-93.6417,2.0,27.7942,11111222 
TABS,ioos:station:wmo:42051:1,2015-03-06T10:00:00Z,29.6350,-93.6417,2.0,27.8105,11111222 
TABS,ioos:station:wmo:42051:1,2015-03-06T10:30:00Z,29.6350,-93.6417,2.0,27.8075,11111222 
TABS,ioos:station:wmo:42051:1,2015-03-06T11:00:00Z,29.6350,-93.6417,2.0,27.7324,11111222 
TABS,ioos:station:wmo:42051:1,2015-03-06T11:30:00Z,29.6350,-93.6417,2.0,27.6754,11111222 
TABS,ioos:station:wmo:42051:1,2015-03-06T12:00:00Z,29.6350,-93.6417,2.0,27.6515,11111222 
TABS,ioos:station:wmo:42051:1,2015-03-06T12:30:00Z,29.6350,-93.6417,2.0,25.9095,11111222 